{"data":{"norad_id":63894,"epoch":"2026-05-24T22:29:28.667040Z","epoch_age_seconds":77570,"freshness":"FRESH","line1":"1 63894U 25095E   26144.93713735  .00017826  00000+0  65532-3 0  9993","line2":"2 63894  42.9973 105.2000 0000550 253.7160 106.3631 15.27601749 59453","mean_motion":15.27601749,"eccentricity":5.5e-5,"inclination_deg":42.9973,"raan_deg":105.2,"arg_perigee_deg":253.716,"mean_anomaly_deg":106.3631,"bstar":0.00065532,"rev_number":5945,"period_min":94.265406605004,"perigee_km":482.60661082867,"apogee_km":483.36133413564,"semimajor_km":6861.1209724822,"source":"CELESTRAK","updated_at":"2026-05-25T13:38:20.175435Z"}}